• In Netherlands
  • List of Countries
  • For 7 days
  • Water Temperature
  • Satellite Maps
  • Weather Map
  • Weather Widgets
  • user-avatar
    Login

    Hourly Weather Gabrovo

    Today, 18 October, Wednesday

    Time Temperature Precipitation Wind Pressure Humidity
    00:00 +14°C° 0 mm 1 mps 708 mmHg 55%
    01:00 +14°C° 0 mm 1 mps 707 mmHg 55%
    02:00 +14°C° 0 mm 1 mps 707 mmHg 56%
    03:00 +13°C° 0 mm 1 mps 707 mmHg 56%
    04:00 +13°C° 0 mm 1 mps 707 mmHg 57%
    05:00 +13°C° 0 mm 1 mps 707 mmHg 57%
    06:00 +14°C° 0 mm 1 mps 707 mmHg 56%
    07:00 +14°C° 0 mm 1 mps 707 mmHg 56%
    08:00 +15°C° 0 mm 1 mps 707 mmHg 52%
    09:00 +18°C° 0 mm 1 mps 707 mmHg 47%
    10:00 +20°C° 0 mm 1 mps 707 mmHg 42%
    11:00 +22°C° 0 mm 1 mps 707 mmHg 37%
    12:00 +22°C° 0 mm 1 mps 707 mmHg 35%
    13:00 +23°C° 0 mm 1 mps 707 mmHg 33%
    14:00 +24°C° 0 mm 2 mps 706 mmHg 31%
    15:00 +23°C° 0 mm 1 mps 706 mmHg 35%
    16:00 +21°C° 0 mm 1 mps 705 mmHg 39%
    17:00 +20°C° 0 mm 1 mps 705 mmHg 43%
    18:00 +19°C° 0 mm 1 mps 705 mmHg 45%
    19:00 +18°C° 0 mm 1 mps 705 mmHg 47%
    20:00 +15°C° 0 mm 1 mps 704 mmHg 49%
    21:00 +15°C° 0 mm 1 mps 704 mmHg 49%
    22:00 +14°C° 0 mm 1 mps 704 mmHg 50%
    23:00 +14°C° 0 mm 1 mps 704 mmHg 51%

    Tomorrow, 19 October, Thursday

    Time Temperature Precipitation Wind Pressure Humidity
    00:00 +14°C° 0 mm 1 mps 704 mmHg 51%
    01:00 +13°C° 0 mm 1 mps 704 mmHg 52%
    02:00 +13°C° 0 mm 1 mps 704 mmHg 52%
    03:00 +13°C° 0 mm 1 mps 703 mmHg 53%
    04:00 +12°C° 0 mm 1 mps 703 mmHg 53%
    05:00 +12°C° 0 mm 1 mps 703 mmHg 54%
    06:00 +13°C° 0 mm 1 mps 703 mmHg 53%
    07:00 +13°C° 0 mm 1 mps 703 mmHg 53%
    08:00 +14°C° 0 mm 1 mps 703 mmHg 53%
    09:00 +16°C° 0 mm 1 mps 704 mmHg 47%
    10:00 +19°C° 0 mm 1 mps 704 mmHg 42%
    11:00 +21°C° 0 mm 1 mps 704 mmHg 36%
    12:00 +22°C° 0 mm 1 mps 704 mmHg 34%
    13:00 +23°C° 0 mm 1 mps 704 mmHg 33%
    14:00 +23°C° 0 mm 2 mps 704 mmHg 31%
    15:00 +22°C° 0 mm 1 mps 704 mmHg 34%
    16:00 +21°C° 0 mm 1 mps 703 mmHg 38%
    17:00 +20°C° 0 mm 1 mps 703 mmHg 41%
    18:00 +19°C° 0 mm 1 mps 703 mmHg 43%
    19:00 +18°C° 0 mm 1 mps 703 mmHg 45%
    20:00 +15°C° 0 mm 1 mps 703 mmHg 47%
    21:00 +15°C° 0 mm 1 mps 703 mmHg 48%
    22:00 +15°C° 0 mm 1 mps 703 mmHg 49%
    23:00 +14°C° 0 mm 1 mps 703 mmHg 50%

    Day after tomorrow, 20 October, Friday

    Time Temperature Precipitation Wind Pressure Humidity
    00:00 +14°C° 0 mm 1 mps 703 mmHg 51%
    01:00 +14°C° 0 mm 1 mps 703 mmHg 51%
    02:00 +13°C° 0 mm 1 mps 703 mmHg 52%
    03:00 +13°C° 0 mm 1 mps 702 mmHg 53%
    04:00 +13°C° 0 mm 1 mps 702 mmHg 54%
    05:00 +13°C° 0 mm 1 mps 702 mmHg 54%
    06:00 +13°C° 0 mm 1 mps 702 mmHg 54%
    07:00 +14°C° 0 mm 1 mps 703 mmHg 54%
    08:00 +14°C° 0 mm 1 mps 703 mmHg 53%
    09:00 +18°C° 0 mm 1 mps 703 mmHg 47%
    10:00 +20°C° 0 mm 1 mps 704 mmHg 41%
    11:00 +22°C° 0 mm 1 mps 704 mmHg 35%
    12:00 +22°C° 0 mm 1 mps 704 mmHg 34%
    13:00 +23°C° 0 mm 1 mps 704 mmHg 32%
    14:00 +24°C° 0 mm 1 mps 704 mmHg 31%
    15:00 +22°C° 0 mm 1 mps 704 mmHg 35%
    16:00 +21°C° 0 mm 1 mps 703 mmHg 39%
    17:00 +20°C° 0 mm 1 mps 703 mmHg 42%
    18:00 +19°C° 0 mm 1 mps 703 mmHg 45%
    19:00 +18°C° 0 mm 1 mps 703 mmHg 47%
    20:00 +16°C° 0 mm 1 mps 703 mmHg 50%
    21:00 +15°C° 0 mm 1 mps 704 mmHg 51%
    22:00 +15°C° 0 mm 1 mps 704 mmHg 53%
    23:00 +15°C° 0 mm 1 mps 704 mmHg 54%

    21 October, Saturday

    Time Temperature Precipitation Wind Pressure Humidity
    00:00 +14°C° 0 mm 1 mps 704 mmHg 55%
    01:00 +14°C° 0 mm 1 mps 704 mmHg 56%
    02:00 +14°C° 0 mm 1 mps 704 mmHg 57%
    03:00 +13°C° 0 mm 1 mps 704 mmHg 58%
    04:00 +13°C° 0 mm 1 mps 703 mmHg 59%
    05:00 +13°C° 0 mm 1 mps 703 mmHg 59%
    06:00 +13°C° 0 mm 1 mps 704 mmHg 58%
    07:00 +14°C° 0 mm 1 mps 704 mmHg 58%
    08:00 +14°C° 0 mm 1 mps 704 mmHg 57%
    09:00 +16°C° 0 mm 1 mps 705 mmHg 51%
    10:00 +19°C° 0 mm 1 mps 705 mmHg 45%
    11:00 +21°C° 0 mm 1 mps 705 mmHg 39%
    12:00 +21°C° 0 mm 1 mps 705 mmHg 38%
    13:00 +22°C° 0 mm 1 mps 705 mmHg 37%
    14:00 +22°C° 0 mm 1 mps 705 mmHg 36%
    15:00 +21°C° 0 mm 1 mps 704 mmHg 40%
    16:00 +20°C° 0 mm 1 mps 704 mmHg 43%
    17:00 +19°C° 0 mm 1 mps 704 mmHg 47%
    18:00 +18°C° 0 mm 1 mps 704 mmHg 51%
    19:00 +16°C° 0 mm 1 mps 704 mmHg 54%
    20:00 +15°C° 0 mm 1 mps 704 mmHg 57%
    21:00 +14°C° 0 mm 1 mps 704 mmHg 60%
    22:00 +13°C° 0 mm 1 mps 704 mmHg 62%
    23:00 +13°C° 0 mm 1 mps 705 mmHg 64%

    22 October, Sunday

    Time Temperature Precipitation Wind Pressure Humidity
    00:00 +13°C° 0 mm 1 mps 704 mmHg 67%
    01:00 +12°C° 0 mm 1 mps 704 mmHg 70%
    02:00 +12°C° 0 mm 1 mps 704 mmHg 73%
    03:00 +11°C° 0 mm 1 mps 704 mmHg 76%
    04:00 +11°C° 0 mm 1 mps 704 mmHg 78%
    05:00 +10°C° 0 mm 0 mps 704 mmHg 80%
    06:00 +10°C° 0 mm 0 mps 704 mmHg 78%
    07:00 +11°C° 0 mm 0 mps 704 mmHg 77%
    08:00 +11°C° 0 mm 0 mps 704 mmHg 75%
    09:00 +14°C° 0 mm 1 mps 704 mmHg 69%
    10:00 +15°C° 0 mm 1 mps 705 mmHg 63%
    11:00 +18°C° 0 mm 1 mps 705 mmHg 57%
    12:00 +17°C° 0 mm 2 mps 704 mmHg 53%
    13:00 +18°C° 0 mm 2 mps 704 mmHg 50%
    14:00 +19°C° 0 mm 2 mps 703 mmHg 46%
    15:00 +18°C° 0 mm 2 mps 703 mmHg 49%
    16:00 +17°C° 0 mm 2 mps 702 mmHg 52%
    17:00 +16°C° 0 mm 2 mps 702 mmHg 55%
    18:00 +15°C° 0 mm 2 mps 702 mmHg 59%
    19:00 +14°C° 0 mm 2 mps 702 mmHg 64%
    20:00 +13°C° 0 mm 2 mps 702 mmHg 68%
    21:00 +12°C° 0 mm 2 mps 701 mmHg 72%
    22:00 +12°C° 0 mm 2 mps 701 mmHg 76%
    23:00 +10°C° 0 mm 2 mps 701 mmHg 80%

    23 October, Monday

    Time Temperature Precipitation Wind Pressure Humidity
    00:00 +10°C° 0 mm 2 mps 701 mmHg 82%
    01:00 +10°C° 0 mm 1 mps 700 mmHg 85%
    02:00 +10°C° 0 mm 1 mps 700 mmHg 87%
    03:00 +10°C° 0 mm 1 mps 700 mmHg 88%
    04:00 +10°C° 0 mm 1 mps 699 mmHg 90%
    05:00 +10°C° 0 mm 1 mps 699 mmHg 91%
    06:00 +10°C° 0 mm 1 mps 699 mmHg 90%
    07:00 +11°C° 0 mm 1 mps 699 mmHg 88%
    08:00 +11°C° 0 mm 1 mps 699 mmHg 87%
    09:00 +12°C° 0 mm 2 mps 699 mmHg 82%
    10:00 +13°C° 0 mm 2 mps 699 mmHg 76%
    11:00 +14°C° 0 mm 2 mps 699 mmHg 71%
    12:00 +14°C° 0 mm 3 mps 699 mmHg 66%
    13:00 +14°C° 0 mm 3 mps 698 mmHg 62%
    14:00 +16°C° 0 mm 3 mps 698 mmHg 58%
    15:00 +16°C° 0 mm 3 mps 698 mmHg 60%
    16:00 +14°C° 0 mm 3 mps 698 mmHg 62%
    17:00 +14°C° 0 mm 3 mps 698 mmHg 64%
    18:00 +13°C° 0 mm 3 mps 697 mmHg 68%
    19:00 +12°C° 0 mm 3 mps 697 mmHg 73%
    20:00 +11°C° 0 mm 3 mps 697 mmHg 78%
    21:00 +11°C° 0 mm 3 mps 697 mmHg 80%
    22:00 +10°C° 0 mm 3 mps 697 mmHg 83%
    23:00 +10°C° 0 mm 3 mps 697 mmHg 85%
    Show more